This is the latest recevied weather packets stored in our database for station/object OM6ABF-11. If no packets are shown the sender has not sent any weather packets the latest 10 day(s).
| Time | Temp. | Humidity | Pressure | Rain* | Wind** | Luminosity | Snow |
|---|---|---|---|---|---|---|---|
| 1777482199 | 7.22° C | 30% | 1024.7 hPa | - | - | - | - |
| 1777481301 | 7.78° C | 29% | 1024.6 hPa | - | - | - | - |
| 1777480404 | 8.33° C | 31% | 1024.5 hPa | - | - | - | - |
| 1777477708 | 8.89° C | 30% | 1024.3 hPa | - | - | - | - |
| 1777476808 | 8.89° C | 30% | 1024.1 hPa | - | - | - | - |
| 1777475910 | 8.89° C | 30% | 1024.1 hPa | - | - | - | - |
| 1777475010 | 9.44° C | 30% | 1023.9 hPa | - | - | - | - |
| 1777474113 | 9.44° C | 32% | 1024.1 hPa | - | - | - | - |
| 1777473707 | 10° C | 28% | 1023.8 hPa | - | - | - | - |
| 1777472807 | 10° C | 30% | 1023.6 hPa | - | - | - | - |
| 1777471908 | 10.56° C | 29% | 1023.9 hPa | - | - | - | - |
| 1777471007 | 10.56° C | 30% | 1023.7 hPa | - | - | - | - |
| 1777470109 | 11.67° C | 30% | 1023.5 hPa | - | - | - | - |
| 1777469211 | 12.78° C | 27% | 1023.5 hPa | - | - | - | - |
| 1777468312 | 12.22° C | 28% | 1023.3 hPa | - | - | - | - |
| 1777467412 | 12.78° C | 28% | 1023.2 hPa | - | - | - | - |
| 1777466513 | 13.33° C | 26% | 1023.3 hPa | - | - | - | - |
| 1777465614 | 13.33° C | 25% | 1023.2 hPa | - | - | - | - |
| 1777464715 | 12.22° C | 27% | 1023 hPa | - | - | - | - |
| 1777463815 | 13.33° C | 27% | 1023.1 hPa | - | - | - | - |
| 1777462916 | 12.22° C | 26% | 1023.1 hPa | - | - | - | - |
| 1777462017 | 13.33° C | 24% | 1023.2 hPa | - | - | - | - |
| 1777461117 | 13.33° C | 24% | 1023.1 hPa | - | - | - | - |
| 1777460217 | 13.89° C | 25% | 1023.2 hPa | - | - | - | - |
| 1777459317 | 13.33° C | 25% | 1023.4 hPa | - | - | - | - |
* Rain since midnight (hover to see other rain measurements)
** Current wind speed in m/s (hover to see current wind gust speed)